User: anonymous   Login
Location: Unspecified
(0.0000°N, 0.0000°E)
Time: 13:05:54
(UTC+00:00)
Language:

MERIDIAN 6 - Orbit

View from above orbital plane
View from above orbital plane
View from above satellite
View from above satellite

Ground track
Ground track

The orbit data is extracted from the following two-line orbital elements,

1 38995U 12063A   23267.64000970 -.00000158  00000-0  00000-0 0  9997
2 38995  65.1745 121.4165 6951481 239.9327  34.7572  2.00511449 79519
Epoch (UTC): 24 September 2023 15:21:36
Eccentricity: 0.6951481
inclination: 65.1745°
perigee height: 1720 km
apogee height: 38653 km
right ascension of ascending node: 121.4165°
argument of perigee: 239.9327°
revolutions per day: 2.00511449
mean anomaly at epoch: 34.7572°
orbit number at epoch: 7951

The dashed part of the orbit path shows where the satellite is in the earth's shadow,  

DLR